Zurück zum Katalog

FENGYUN 1C DEB

AktivSSO
NORAD 31040·DEBRIS·🇨🇳 China

Gestartet May 10, 1999 von Taiyuan Satellite Launch Center

Loading…

Nächste Überflüge (nächste 24 Stunden)

TLE

AktuellSource: Space-Track

Epoche: Sep 14, 2026, 10:16 UTC

1 31040U 99025BEJ 26257.42815664  .00000310  00000-0  16898-3 0  9990
2 31040  98.6800 245.7652 0063344 121.8252  33.6446 14.17997298  6103

Verfolge FENGYUN 1C DEB in Echtzeit mit AllMySat

Download on the App Store